Minneapolis Crystal, MN

12:13 AM CDT on August 23, 2017 (GMT -0500)
Crystal

Weather History for KMIC - March, 2013

Change the Weather History Date:

Monday, March 4, 2013

  Actual Average Record
Temperature  
Mean Temperature 26 °F -  
Max Temperature 28 °F 28 °F 51 °F (1997)
Min Temperature 23 °F 14 °F -2 °F (2015)
Degree Days  
Heating Degree Days 40    
Moisture  
Dew Point 18 °F    
Average Humidity 76    
Maximum Humidity 91    
Minimum Humidity 43    
Precipitation  
Precipitation 0.14 in - - ()
Sea Level Pressure  
Sea Level Pressure 29.99 in    
Wind  
Wind Speed 9 mph (ESE)    
Max Wind Speed 15 mph    
Max Gust Speed 20 mph    
Visibility 4 miles    
Events Fog , Snow    
Averages and records for this station are not official NWS values.
T = Trace of Precipitation, MM = Missing Value Source: NWS Daily Summary

Daily Weather History Graph

Daily Weather History Graph

Search for Another Location

Airport or City:

Trip Planner

Search our weather history database for the weather conditions in past years. The results will help you decide how hot, cold, wet, or windy it might be!

Date:

Astronomy

Mar. 04, 2013 Rise Set
Actual Time 6:45 AM CST 6:05 PM CST
Civil Twilight 6:16 AM CST 6:34 PM CST
Nautical Twilight 5:42 AM CST 7:08 PM CST
Astronomical Twilight 5:08 AM CST 7:42 PM CST
Moon 1:06 AM CST (3/4) 10:35 AM CST (3/4)
Length of Visible Light 12h 18m
Length of Day
11h 19m
Waning Gibbous, 52% of the Moon is Illuminated
Mar 4
Waning Gibbous
Mar 4
Last Quarter
Mar 11
New
Mar 19
First Quarter
Mar 27
Full

Hourly Weather History & Observations

Time (CST) Temp. Windchill Dew Point Humidity Pressure Visibility Wind Dir Wind Speed Gust Speed Precip Events Conditions
12:53 AM 28.0 °F 18.6 °F 8.1 °F 43% 30.02 in 10.0 mi SE 10.4 mph - N/A   Overcast
1:53 AM 28.0 °F 20.0 °F 9.0 °F 45% 30.01 in 10.0 mi ESE 8.1 mph - N/A   Overcast
2:53 AM 27.0 °F 18.0 °F 9.0 °F 47% 29.99 in 10.0 mi ESE 9.2 mph - N/A   Overcast
3:53 AM 27.0 °F 17.3 °F 10.0 °F 49% 29.97 in 10.0 mi East 10.4 mph 18.4 mph N/A   Overcast
4:53 AM 27.0 °F 18.7 °F 10.0 °F 49% 29.98 in 10.0 mi ESE 8.1 mph - N/A   Overcast
5:53 AM 25.0 °F 12.6 °F 12.9 °F 60% 29.99 in 8.0 mi SE 15.0 mph 19.6 mph 0.00 in Snow Light Snow
6:53 AM 24.1 °F 13.1 °F 16.0 °F 71% 29.99 in 3.0 mi SE 11.5 mph - 0.00 in Snow Light Snow
6:56 AM 24.8 °F 14.0 °F 15.8 °F 69% 29.95 in 2.5 mi SE 11.5 mph - 0.00 in Snow Light Snow
7:05 AM 24.8 °F 14.6 °F 17.6 °F 74% 29.95 in 1.0 mi ESE 10.4 mph - 0.00 in Snow Light Snow
7:14 AM 23.0 °F 13.1 °F 17.6 °F 80% 29.95 in 0.8 mi ESE 9.2 mph - 0.00 in Snow Light Snow
7:53 AM 23.0 °F 13.1 °F 19.0 °F 85% 29.99 in 0.8 mi ESE 9.2 mph - 0.00 in Snow Light Snow
8:11 AM 23.0 °F 12.4 °F 17.6 °F 80% 29.96 in 1.0 mi ESE 10.4 mph - 0.00 in Snow Light Snow
8:53 AM 23.0 °F 12.4 °F 19.0 °F 85% 30.01 in 0.8 mi ESE 10.4 mph - 0.00 in Snow Light Snow
9:51 AM 23.0 °F 13.1 °F 17.6 °F 80% 29.96 in 1.2 mi East 9.2 mph - 0.01 in Snow Light Snow
9:53 AM 23.0 °F 13.1 °F 18.0 °F 81% 30.00 in 1.5 mi East 9.2 mph - 0.01 in Snow Light Snow
9:56 AM 23.0 °F 13.1 °F 17.6 °F 80% 29.96 in 2.0 mi ESE 9.2 mph - 0.00 in Snow Light Snow
10:05 AM 23.0 °F 13.1 °F 19.4 °F 86% 29.96 in 5.0 mi ESE 9.2 mph - 0.00 in Snow Light Snow
10:41 AM 24.8 °F 12.4 °F 17.6 °F 74% 29.96 in 2.5 mi ESE 15.0 mph 18.4 mph 0.00 in Snow Light Snow
10:53 AM 24.1 °F 14.4 °F 16.0 °F 71% 30.00 in 2.5 mi ESE 9.2 mph 17.3 mph 0.00 in Snow Light Snow
11:53 AM 25.0 °F 14.8 °F 15.1 °F 66% 29.99 in 2.5 mi East 10.4 mph - 0.01 in Snow Light Snow
12:16 PM 24.8 °F 14.6 °F 15.8 °F 69% 29.94 in 4.0 mi East 10.4 mph 18.4 mph 0.00 in Snow Light Snow
12:48 PM 24.8 °F 14.6 °F 17.6 °F 74% 29.94 in 4.0 mi East 10.4 mph - 0.00 in Snow Light Snow
12:53 PM 24.1 °F 14.4 °F 17.1 °F 75% 29.98 in 6.0 mi East 9.2 mph - 0.00 in   Overcast
1:53 PM 25.0 °F 15.5 °F 17.1 °F 72% 29.97 in 10.0 mi East 9.2 mph - 0.00 in   Overcast
2:53 PM 25.0 °F 16.3 °F 15.1 °F 66% 29.99 in 10.0 mi ESE 8.1 mph 19.6 mph N/A   Overcast
3:53 PM 25.0 °F 14.2 °F 16.0 °F 69% 30.00 in 10.0 mi ESE 11.5 mph - N/A   Overcast
4:10 PM 24.8 °F 13.4 °F 15.8 °F 69% 29.96 in 10.0 mi ESE 12.7 mph 17.3 mph N/A   Overcast
4:53 PM 25.0 °F 16.3 °F 17.1 °F 72% 30.00 in 10.0 mi East 8.1 mph - N/A   Overcast
5:53 PM 25.0 °F 15.5 °F 18.0 °F 75% 30.01 in 8.0 mi East 9.2 mph - 0.00 in   Overcast
6:53 PM 24.1 °F 18.2 °F 19.0 °F 81% 30.02 in 3.0 mi East 4.6 mph - 0.01 in Snow Light Snow
7:10 PM 24.8 °F 17.9 °F 19.4 °F 80% 29.98 in 5.0 mi East 5.8 mph - 0.00 in Snow Light Snow
7:53 PM 24.1 °F 18.2 °F 19.0 °F 81% 30.04 in 2.0 mi ESE 4.6 mph - 0.01 in Snow Light Snow
8:03 PM 24.8 °F 20.5 °F 19.4 °F 80% 30.01 in 2.0 mi ESE 3.5 mph - 0.00 in Snow Light Snow
8:10 PM 24.8 °F 19.1 °F 19.4 °F 80% 30.01 in 1.2 mi East 4.6 mph - 0.00 in Snow Light Snow
8:23 PM 24.8 °F 19.1 °F 21.2 °F 86% 30.01 in 0.8 mi East 4.6 mph - 0.01 in Snow Light Snow
8:53 PM 24.1 °F - 21.0 °F 88% 30.06 in 1.5 mi Calm Calm - 0.03 in Snow Light Snow
9:03 PM 24.8 °F 20.5 °F 21.2 °F 86% 30.02 in 0.5 mi East 3.5 mph - 0.01 in Fog , Snow Snow
9:19 PM 24.8 °F 19.1 °F 21.2 °F 86% 30.02 in 1.8 mi East 4.6 mph - 0.02 in Snow Light Snow
9:32 PM 24.8 °F 19.1 °F 21.2 °F 86% 30.02 in 2.0 mi East 4.6 mph - 0.02 in Snow Light Snow
9:41 PM 24.8 °F 17.9 °F 21.2 °F 86% 30.01 in 4.0 mi East 5.8 mph - 0.02 in Snow Light Snow
9:53 PM 24.1 °F 17.0 °F 21.0 °F 88% 30.06 in 2.5 mi East 5.8 mph - 0.02 in Snow Light Snow
10:29 PM 24.8 °F 17.9 °F 21.2 °F 86% 30.02 in 1.2 mi ESE 5.8 mph - 0.01 in Snow Light Snow
10:49 PM 24.8 °F 17.9 °F 21.2 °F 86% 30.01 in 0.8 mi East 5.8 mph - 0.02 in Snow Light Snow
10:53 PM 24.1 °F 18.2 °F 21.9 °F 91% 30.05 in 0.8 mi East 4.6 mph - 0.02 in Snow Light Snow
11:04 PM 24.8 °F 17.9 °F 21.2 °F 86% 30.01 in 1.0 mi ESE 5.8 mph - 0.01 in Snow Light Snow
11:33 PM 24.8 °F 16.9 °F 21.2 °F 86% 30.00 in 0.5 mi East 6.9 mph - 0.03 in Fog , Snow Snow
11:46 PM 24.8 °F 19.1 °F 21.2 °F 86% 29.99 in 1.5 mi East 4.6 mph - 0.03 in Snow Light Snow
11:53 PM 24.1 °F 17.0 °F 21.9 °F 91% 30.03 in 2.5 mi East 5.8 mph - 0.03 in Snow Light Snow